Location: Unspecified
(19.4326°N, 99.1332°W)
Time: 00:25:31
(UTC-05:00)

ISS - Visible Passes

Search period start: 24 June 2018 00:00
Search period end: 04 July 2018 00:00
Orbit: 403 x 408 km, 51.6° (Epoch: 24 June)

Date Brightness Start Highest point End Pass type
(mag) Time Alt. Az. Time Alt. Az. Time Alt. Az.
24 Jun -0.8 06:14:32 10° SE 06:15:01 10° ESE 06:15:30 10° ESE visible
26 Jun -2.5 06:04:28 12° SSW 06:07:10 35° SE 06:10:11 10° ENE visible
27 Jun -1.3 05:14:54 14° SE 05:15:13 14° SE 05:17:04 10° E visible
28 Jun -3.6 05:57:56 28° WSW 05:59:22 53° NW 06:02:34 10° NNE visible
29 Jun -2.4 05:08:11 38° ENE 05:08:11 38° ENE 05:10:30 10° NE visible
30 Jun -1.8 05:51:02 15° WNW 05:51:39 16° NW 05:53:48 10° N visible
01 Jul -1.5 05:01:07 21° N 05:01:07 21° N 05:02:31 10° NNE visible
